NIMIQ 1

Last updated on Sun Jan 09 2022 00:02:35 GMT+0000 (Coordinated Universal Time)

1 25740U 99027A 22008.56421709 .00000004 00000+0 00000+0 0 9993 2 25740 2.4549 88.6666 0011771 244.6998 65.8441 0.98577312 82799
UTC large
Height (km)
Speed (km/s)
/
Latitude / Longitude
Inclination (degrees)
Orbital Period (minutes)
Azimuth
Elevation
Range (km)
Doppler Factor

Next 0 passes for location: London (51.5072 / 0.1276)

Sorry there are no passes over London.